Regional Weather Roundup
Issued by NWS

Home | Current Version | Previous Version | Text Only | Print | Product List | Glossary On
Versions: 1 2 3 4 5 6 7 8 9 10 11 12 13 14 15 16 17 18 19 20 21 22 23 24 25 26 27 28 29 30 31 32 33 34 35 36 37 38 39 40 41 42 43 44 45 46 47 48 49 50
000
ASUS45 KPSR 160210
RWRAZ

ARIZONA HOURLY REGIONAL WEATHER ROUNDUP
NATIONAL WEATHER SERVICE PHOENIX AZ
700 PM MST FRI DEC 15 2017

NOTE: FAIR INDICATES FEW OR NO CLOUDS BELOW 12,000 FEET WITH NO
SIGNIFICANT WEATHER AND/OR OBSTRUCTIONS TO VISIBILITY.

AZZ001>003-036-160300-
NORTHWEST ARIZONA

CITY           SKY/WX    TMP DP  RH WIND       PRES   REMARKS
BULLHEAD CITY  CLEAR     57  12  17 CALM      30.03S
KINGMAN        CLEAR     47   0  14 S9        30.07F
$$

AZZ004>008-015-016-018-160300-
NORTH CENTRAL ARIZONA

CITY           SKY/WX    TMP DP  RH WIND       PRES   REMARKS
GRAND CANYON   PTCLDY    25 -14  17 CALM      30.16F
WILLIAMS       PTCLDY    34 -13  13 S8        30.14F WCI  27
PRESCOTT       CLEAR     43  -3  14 S7        30.12S
FLAGSTAFF      PTCLDY    31  -6  20 CALM      30.17F
PAYSON         CLEAR     43   9  24 S5        30.13S
PAGE           CLEAR     41  14  33 S3        30.09F
$$

AZZ009>014-017-160300-
NORTHEAST ARIZONA

CITY           SKY/WX    TMP DP  RH WIND       PRES   REMARKS
WINSLOW        MOCLDY    28  -2  27 SW3       30.14S
SAINT JOHNS    CLOUDY    30   0  27 CALM      30.13F
SHOW LOW       PTCLDY    32   3  29 CALM      30.16F
$$

AZZ540-542>544-546-548-160300-
GREATER PHOENIX AREA

CITY           SKY/WX    TMP DP  RH WIND       PRES   REMARKS
PHOENIX        PTCLDY    63  18  17 SW3       30.01F
BUCKEYE        CLEAR     55  32  41 CALM      30.03S
GLENDALE       CLEAR     59  19  21 CALM      30.03F
LUKE AFB       CLEAR     56  27  33 NW3       30.00F
DEER VALLEY    CLEAR     61  10  13 CALM      30.02F
SCOTTSDALE     CLEAR     61  20  20 CALM      30.04F
MESA-FALCON    CLEAR     61  18  18 VRB5      30.04S
MESA-GATEWAY   CLEAR     61  18  18 NW3       30.04R
CHANDLER       CLEAR     61  19  20 NW5       30.03S
$$

AZZ539-553-160300-
SOUTHWEST MARICOPA COUNTY AND PINAL COUNTY

CITY           SKY/WX    TMP DP  RH WIND       PRES   REMARKS
CASA GRANDE    NOT AVBL
$$

AZZ503-504-507>509-160300-
SOUTHEAST ARIZONA

CITY           SKY/WX    TMP DP  RH WIND       PRES   REMARKS
TUCSON         CLEAR     60  15  17 SE7       30.07R
DAVIS-MONTHAN  CLEAR     56  14  19 SE6       30.05R
RYAN FIELD     CLEAR     55  18  22 CALM      30.06S
NOGALES        CLEAR     52  14  22 CALM      30.08S
SIERRA VISTA   CLEAR     46  12  25 SE12      30.12F
DOUGLAS        CLEAR     43  18  36 SE8       30.13S
SAFFORD        CLEAR     45  14  28 E7        30.11F
$$

AZZ532-160300-
SOUTHWEST ARIZONA

CITY           SKY/WX    TMP DP  RH WIND       PRES   REMARKS
YUMA           CLEAR     65  24  21 CALM      29.99F
$$

CAZ041-043-047-048-061-525>527-560>570-160300-
SOUTHERN CALIFORNIA

CITY           SKY/WX    TMP DP  RH WIND       PRES   REMARKS
DOWNTOWN L.A.  CLEAR     65  29  25 CALM      29.99F
L.A. AIRPORT   PTCLDY    63  45  51 W7        30.00F
SAN DIEGO      PTCLDY    67  25  20 N6        30.02R
BURBANK        PTCLDY    67  21  17 CALM      30.00F
ONTARIO        PTCLDY    67  15  13 W3        30.01F
RIVERSIDE      CLEAR     68  21  16 CALM      30.01S
PALM SPRINGS   CLEAR     65  29  25 CALM      30.02S
EL CENTRO NAS  PTCLDY    63  23  21 SE5       30.00F
IMPERIAL       CLEAR     64  26  23 S3        29.98F
BLYTHE         CLEAR     63  17  17 E6        30.01F
NEEDLES        CLEAR     57  11  16 W6        30.03S
$$

NVZ020-UTZ003-160300-
SOUTHERN NEVADA-UTAH

CITY           SKY/WX    TMP DP  RH WIND       PRES   REMARKS
LAS VEGAS      PTCLDY    55  16  21 CALM      30.04F
SALT LAKE CITY CLOUDY    31  27  85 N7        30.06S WCI  24
$$

NMZ009-TXZ055-160300-
NEW MEXICO-WEST TEXAS

CITY           SKY/WX    TMP DP  RH WIND       PRES   REMARKS
ALBUQUERQUE    CLOUDY    37  12  35 S5        30.14S WCI  33
EL PASO        CLEAR     44  24  45 SE5       30.17S
$$


........................KEY........................
SKY/WX - SKY CONDITION/WEATHER
TMP    - TEMPERATURE IN FAHRENHEIT
DP     - DEW POINT IN FAHRENHEIT
RH     - RELATIVE HUMIDITY IN PERCENT
WIND   - DIRECTION AND SPEED IN MILES PER HOUR (MPH)
VRB    - VARIABLE WIND DIRECTION
PRES   - MEAN SEA LEVEL PRESSURE IN INCHES OF MERCURY
         F - FALLING PRESSURE   R - RISING PRESSURE
         S - STEADY PRESSURE
VSB    - VISIBILITY IN MILES
HX     - HEAT INDEX IN FAHRENHEIT
WCI    - WIND CHILL INDEX IN FAHRENHEIT
TC     - TEMPERATURE IN CELSIUS WHICH IS ALSO KNOWN AS
         TEMPERATURE IN CENTIGRADE
AFB    - AIR FORCE BASE
         LUKE AFB IS LUKE AIR FORCE BASE
         DAVIS-MONTHAN IS DAVIS-MONTHAN AIR FORCE BASE
NAS    - NAVAL AIR STATION
         EL CENTRO NAS IS EL CENTRO NAVAL AIR STATION
N/A    - NOT AVAILABLE




USA.gov is the U.S. government's official web portal to all federal, state and local government web resources and services.